Location: Hannover
(52.3723°N, 9.7339°E)
Time: 02:59:10
(UTC+01:00)

Amateur Radio Satellites - All Passes

Search period start: 20 November 2017 02:29
Search period end: 21 November 2017 02:29
Location: Hannover, 52.3723°N, 9.7339°E

Satellite Date Start Highest point End Downlink Frequencies (MHz)
Time Altitude Azimuth
MOZHAYETS 4 20 Nov 02:37:30 02:42:05 84° 255° (WSW) 02:46:42
DX 1 20 Nov 02:39:16 02:41:25 13° 273° (W) 02:43:34 434.975-435.025
CUBESAT XI-V 20 Nov 02:44:49 02:48:58 34° 64° (ENE) 02:53:09 437.345
nSIGHT-1 20 Nov 03:03:39 03:06:35 33° 206° (SSW) 03:09:31 .
KKS-1 20 Nov 03:06:55 03:09:59 18° 56° (ENE) 03:13:05 437.445
M-CUBED/EXP-1 PRIME 20 Nov 03:07:22 03:11:42 47° 106° (ESE) 03:16:09 437.505
BEESAT 3 20 Nov 03:08:48 03:11:59 23° 118° (ESE) 03:15:11 437.485
Oscar 19 20 Nov 03:17:06 03:21:46 35° 298° (WNW) 03:26:25 437.125/150
BUGSAT 1 20 Nov 03:18:38 03:20:54 15° 304° (NW) 03:23:09 437.445
AO-7 20 Nov 03:25:49 03:33:40 42° 98° (E) 03:41:29 .
ITAMSAT 1 20 Nov 03:26:26 03:30:58 29° 94° (E) 03:35:27 435.822/435.867
Gurwin Techsat 1B 20 Nov 03:28:30 03:33:27 39° 297° (WNW) 03:38:22 435.225
PCSat 20 Nov 03:31:01 03:35:43 29° 330° (NNW) 03:40:26 145.827
STARS 20 Nov 03:36:29 03:39:10 16° 55° (NE) 03:41:52 437.465
BEESAT 20 Nov 03:38:02 03:42:19 32° 265° (W) 03:46:36 436.000
YUBILEINY 20 Nov 03:41:18 03:44:26 12° 65° (ENE) 03:47:35 435.215
ISS 20 Nov 03:42:16 03:45:00 24° 211° (SSW) 03:47:41 437.550
RS-15 20 Nov 03:43:47 03:55:52 84° 231° (SW) 04:07:15 29.354- 29.394
ITUPSAT 1 20 Nov 03:46:48 03:50:55 28° 266° (W) 03:55:02 437.325
SO-50 20 Nov 04:00:26 04:03:56 21° 16° (NNE) 04:07:28 436.795
AO-85 20 Nov 04:14:44 04:16:49 14° 112° (ESE) 04:18:58 145.980
BEESAT 2 20 Nov 04:15:38 04:19:13 31° 121° (ESE) 04:22:51 435.950
MOZHAYETS 4 20 Nov 04:18:00 04:19:59 13° 275° (W) 04:21:58
CUBESAT XI-V 20 Nov 04:22:04 04:26:19 36° 264° (W) 04:30:37 437.345
STRAND 1 20 Nov 04:39:32 04:41:28 12° 47° (NE) 04:43:24 437.568
KKS-1 20 Nov 04:41:33 04:46:03 76° 256° (WSW) 04:50:34 437.445
M-CUBED/EXP-1 PRIME 20 Nov 04:42:04 04:45:54 30° 303° (WNW) 04:49:52 437.505
BEESAT 3 20 Nov 04:45:17 04:49:14 59° 317° (NW) 04:53:13 437.485
DOVE 4 20 Nov 04:45:23 04:50:06 32° 93° (E) 04:54:38 437.250
ITAMSAT 1 20 Nov 05:05:37 05:10:42 52° 294° (WNW) 05:15:43 435.822/435.867
STARS 20 Nov 05:10:28 05:14:55 89° 267° (W) 05:19:23 437.465
PCSat 20 Nov 05:17:19 05:20:53 17° 356° (N) 05:24:28 145.827
AO-7 20 Nov 05:18:38 05:26:47 61° 300° (WNW) 05:34:57 .
XW-2F 20 Nov 05:18:50 05:19:57 11° 86° (E) 05:21:04 145.980 - 146.000
YUBILEINY 20 Nov 05:30:39 05:38:59 52° 89° (E) 05:47:25 435.215
SO-50 20 Nov 05:40:51 05:45:21 51° 39° (NE) 05:49:55 436.795
FO-29 20 Nov 05:43:48 05:48:35 20° 43° (NE) 05:53:38 435.910
KAITUO 1B 20 Nov 05:48:20 05:50:57 18° 91° (E) 05:53:33 145.475/437.950
AO-85 20 Nov 05:52:35 05:56:32 88° 326° (NW) 06:00:44 145.980
BEESAT 2 20 Nov 05:52:56 05:56:50 45° 321° (NW) 06:00:47 435.950
RS-15 20 Nov 05:57:10 06:06:37 30° 257° (WSW) 06:15:42 29.354- 29.394
XW-2D 20 Nov 05:58:34 06:01:57 30° 95° (E) 06:05:21 145.860 - 145.880
CUTE 1.7 + AOD 2 20 Nov 06:09:10 06:10:56 12° 86° (E) 06:12:41 437.475
XW-2B 20 Nov 06:13:12 06:16:49 40° 98° (E) 06:20:26 145.730 - 145.750
STRAND 1 20 Nov 06:14:35 06:19:35 53° 67° (ENE) 06:24:37 437.568
KKS-1 20 Nov 06:22:07 06:23:23 11° 275° (W) 06:24:40 437.445
DOVE 4 20 Nov 06:22:53 06:27:57 47° 293° (WNW) 06:32:48 437.250
BEESAT 3 20 Nov 06:24:36 06:27:32 19° 339° (NNW) 06:30:28 437.485
CUTE-I 20 Nov 06:25:59 06:31:10 45° 99° (E) 06:36:17 437.470
NUDT-PHONESAT 20 Nov 06:35:05 06:38:43 49° 100° (E) 06:42:19 437.300
LilacSat-2 20 Nov 06:38:36 06:42:27 83° 107° (ESE) 06:46:17 437.200
XW-2C 20 Nov 06:38:36 06:42:25 78° 104° (ESE) 06:46:14 145.795 - 145.815
SEEDS 20 Nov 06:42:01 06:44:44 16° 88° (E) 06:47:25 437.485
ITAMSAT 1 20 Nov 06:47:06 06:49:04 12° 314° (NW) 06:51:02 435.822/435.867
CUBEBUG 2 20 Nov 06:48:16 06:51:04 17° 89° (E) 06:53:50 437.445
STARS 20 Nov 06:49:52 06:51:55 13° 273° (W) 06:53:59 437.465
XW-2F 20 Nov 06:50:49 06:54:37 84° 285° (WNW) 06:58:24 145.980 - 146.000
AAUSAT CUBESAT 2 20 Nov 06:55:32 06:55:57 10° 84° (E) 06:56:22 437.432
HO-68 20 Nov 06:58:47 07:05:32 40° 96° (E) 07:12:12 435.675
PCSat 20 Nov 07:01:59 07:06:14 23° 22° (NNE) 07:10:30 145.827
AO-7 20 Nov 07:12:08 07:18:04 22° 324° (NW) 07:24:00 .
SO-50 20 Nov 07:21:31 07:25:43 35° 239° (WSW) 07:29:57 436.795
KAITUO 1B 20 Nov 07:21:32 07:25:12 49° 289° (WNW) 07:28:51 145.475/437.950
FO-29 20 Nov 07:25:28 07:32:09 62° 66° (ENE) 07:39:37 435.910
YUBILEINY 20 Nov 07:27:33 07:35:56 48° 292° (WNW) 07:44:28 435.215
BEESAT 2 20 Nov 07:32:42 07:35:30 17° 344° (NNW) 07:38:16 435.950
XW-2D 20 Nov 07:32:47 07:36:06 29° 294° (WNW) 07:39:26 145.860 - 145.880
AO-85 20 Nov 07:34:10 07:37:31 24° 336° (NNW) 07:41:03 145.980
ZACube-1 20 Nov 07:41:54 07:44:54 19° 90° (E) 07:47:54 437.345
CUTE 1.7 + AOD 2 20 Nov 07:43:07 07:47:25 89° 105° (ESE) 07:51:41 437.475
UWE-3 20 Nov 07:47:38 07:51:30 36° 96° (E) 07:55:20 435.000/436.395/437.385
XW-2B 20 Nov 07:47:47 07:50:48 23° 297° (WNW) 07:53:50 145.730 - 145.750
STRAND 1 20 Nov 07:54:40 07:59:03 28° 267° (W) 08:03:29 437.568
DOVE 4 20 Nov 08:03:00 08:04:23 11° 314° (NW) 08:05:44 437.250
BEESAT 3 20 Nov 08:04:19 08:06:30 14° 3° (N) 08:08:39 437.485
CUTE-I 20 Nov 08:06:15 08:11:07 36° 298° (WNW) 08:15:57 437.470
NUDT-PHONESAT 20 Nov 08:09:38 08:12:15 19° 298° (WNW) 08:14:53 437.300
XW-2C 20 Nov 08:14:05 08:16:05 14° 302° (WNW) 08:18:05 145.795 - 145.815
LilacSat-2 20 Nov 08:14:16 08:16:10 13° 303° (WNW) 08:18:04 437.200
SEEDS 20 Nov 08:16:38 08:20:52 68° 287° (WNW) 08:25:05 437.485
XW-2A 20 Nov 08:20:43 08:24:05 78° 103° (ESE) 08:27:27 145.665 - 145.685
PRISM 20 Nov 08:20:47 08:23:15 16° 56° (NE) 08:25:44 437.425
CUBEBUG 2 20 Nov 08:23:57 08:28:08 61° 289° (WNW) 08:32:13 437.445
XW-2F 20 Nov 08:26:46 08:28:06 12° 304° (NW) 08:29:25 145.980 - 146.000
AAUSAT CUBESAT 2 20 Nov 08:27:55 08:32:08 77° 103° (ESE) 08:36:20 437.432
UNISAT 6 20 Nov 08:28:05 08:32:20 40° 67° (ENE) 08:36:31 437.425
TIGRISAT 20 Nov 08:32:50 08:37:06 41° 67° (ENE) 08:41:17 435.000
AO-73 20 Nov 08:33:13 08:37:16 51° 100° (E) 08:41:18 145.935
PCSat 20 Nov 08:45:20 08:50:44 59° 45° (NE) 08:56:05 145.827
HO-68 20 Nov 08:46:32 08:53:31 55° 298° (WNW) 09:00:27 435.675
Oscar 11 20 Nov 08:51:14 08:55:29 54° 100° (E) 08:59:45 .
Max Valier Satellite 20 Nov 09:03:32 09:05:01 12° 88° (E) 09:06:29 145.860
AO-7 20 Nov 09:05:25 09:07:50 12° 351° (N) 09:10:15 .
FO-29 20 Nov 09:11:30 09:17:38 36° 269° (W) 09:24:27 435.910
BEESAT 2 20 Nov 09:12:18 09:14:41 15° 7° (N) 09:17:03 435.950
DELFI C3 20 Nov 09:12:40 09:15:52 22° 92° (E) 09:19:01 145.870
AO-85 20 Nov 09:16:38 09:19:20 16° 1° (N) 09:22:09 145.980
ZACube-1 20 Nov 09:17:29 09:21:32 54° 290° (WNW) 09:25:35 437.345
CUTE 1.7 + AOD 2 20 Nov 09:20:15 09:22:38 15° 304° (NW) 09:25:02 437.475
UWE-3 20 Nov 09:24:17 09:27:53 28° 296° (WNW) 09:31:27 435.000/436.395/437.385
AIST 2D 20 Nov 09:25:43 09:27:55 16° 61° (ENE) 09:30:08 435.315
YUBILEINY 20 Nov 09:30:45 09:35:34 15° 321° (NW) 09:40:26 435.215
BEESAT 3 20 Nov 09:42:03 09:45:20 24° 27° (NNE) 09:48:34 437.485
PRISM 20 Nov 09:53:49 09:57:58 82° 255° (WSW) 10:02:10 437.425
SEEDS 20 Nov 09:54:23 09:55:46 11° 307° (NW) 09:57:10 437.485
XW-2A 20 Nov 09:55:11 09:56:17 11° 302° (WNW) 09:57:23 145.665 - 145.685
CUBEBUG 2 20 Nov 10:03:20 10:03:53 10° 309° (NW) 10:04:27 437.445
AAUSAT CUBESAT 2 20 Nov 10:04:28 10:07:04 16° 302° (WNW) 10:09:40 437.432
UNISAT 6 20 Nov 10:05:08 10:09:08 30° 265° (W) 10:13:06 437.425
DUCHIFAT 1 20 Nov 10:05:14 10:08:01 17° 58° (ENE) 10:10:48 145.980
TIGRISAT 20 Nov 10:09:55 10:13:54 29° 266° (W) 10:17:50 435.000
AO-73 20 Nov 10:10:03 10:13:14 22° 299° (WNW) 10:16:24 145.935
EO-79 20 Nov 10:10:07 10:13:28 23° 61° (ENE) 10:16:49 145.935-145.965
NANOSAT C BR1 20 Nov 10:14:20 10:17:40 23° 61° (ENE) 10:20:58 145.865
POLYITAN 1 20 Nov 10:24:35 10:28:18 30° 64° (ENE) 10:31:59 437.675
Oscar 11 20 Nov 10:27:58 10:31:20 22° 299° (WNW) 10:34:41 .
PCSat 20 Nov 10:29:06 10:33:53 32° 247° (WSW) 10:38:37 145.827
HO-68 20 Nov 10:35:23 10:39:49 18° 321° (NW) 10:44:15 435.675
Max Valier Satellite 20 Nov 10:35:38 10:39:18 73° 286° (WNW) 10:42:58 145.860
EO-88 20 Nov 10:37:10 10:40:51 85° 104° (ESE) 10:44:31 145.990 - 145.960
DELFI C3 20 Nov 10:46:58 10:50:48 44° 291° (WNW) 10:54:36 145.870
QB50P2 20 Nov 10:47:15 10:51:23 51° 70° (ENE) 10:55:31 145.880/145.840
BEESAT 2 20 Nov 10:50:02 10:53:37 28° 31° (NNE) 10:57:09 435.950
AO-7 20 Nov 10:53:32 10:57:08 14° 19° (NNE) 11:00:44 .
AIST 2D 20 Nov 10:57:22 11:00:45 51° 260° (W) 11:04:10 435.315
AO-85 20 Nov 10:57:29 11:01:09 25° 25° (NNE) 11:05:02 145.980
BUGSAT 1 20 Nov 11:03:02 11:05:55 18° 59° (ENE) 11:08:47 437.445
LO-87 20 Nov 11:06:16 11:09:20 26° 95° (E) 11:12:23 145.935 - 145.965
BEESAT 3 20 Nov 11:19:21 11:23:21 87° 234° (SW) 11:27:17 437.485
Oscar 19 20 Nov 11:22:41 11:26:30 22° 55° (NE) 11:30:21 437.125/150
ESTCUBE 1 20 Nov 11:26:48 11:30:59 35° 96° (E) 11:35:09 437.505/2401.250
SPROUT 20 Nov 11:27:29 11:27:49 10° 84° (E) 11:28:09 437.525
PRISM 20 Nov 11:33:00 11:33:57 11° 275° (W) 11:34:54 437.425
Gurwin Techsat 1B 20 Nov 11:37:14 11:41:15 22° 55° (NE) 11:45:17 435.225
DUCHIFAT 1 20 Nov 11:39:00 11:43:12 72° 256° (WSW) 11:47:26 145.980
EO-79 20 Nov 11:44:49 11:48:57 50° 260° (W) 11:53:06 145.935-145.965
NANOSAT C BR1 20 Nov 11:48:57 11:53:05 51° 260° (W) 11:57:13 145.865
VELOX 1 20 Nov 11:54:27 11:56:37 13° 86° (E) 11:58:45 145.980
POLYITAN 1 20 Nov 12:00:03 12:04:00 37° 263° (W) 12:07:57 437.675
EO-88 20 Nov 12:12:25 12:13:56 12° 303° (WNW) 12:15:28 145.990 - 145.960
QB50P2 20 Nov 12:24:12 12:27:27 21° 268° (W) 12:30:43 145.880/145.840
M-CUBED/EXP-1 PRIME 20 Nov 12:25:25 12:28:11 20° 52° (NE) 12:31:06 437.505
BEESAT 2 20 Nov 12:27:37 12:31:39 63° 232° (SW) 12:35:37 435.950
BUGSAT 1 20 Nov 12:36:40 12:40:51 67° 258° (WSW) 12:45:01 437.445
AO-85 20 Nov 12:37:37 12:42:10 79° 46° (NE) 12:47:05 145.980
LO-87 20 Nov 12:39:37 12:42:44 29° 294° (WNW) 12:45:50 145.935 - 145.965
AO-7 20 Nov 12:40:28 12:47:20 31° 45° (NE) 12:54:15 .
DX 1 20 Nov 12:45:25 12:45:57 10° 85° (E) 12:46:30 434.975-435.025
BEESAT 3 20 Nov 12:58:19 13:00:16 13° 248° (WSW) 13:02:11 437.485
SPROUT 20 Nov 13:00:12 13:04:29 76° 104° (ESE) 13:08:44 437.525
Oscar 19 20 Nov 13:00:12 13:05:20 77° 257° (WSW) 13:10:29 437.125/150
ESTCUBE 1 20 Nov 13:03:40 13:07:46 34° 295° (WNW) 13:11:52 437.505/2401.250
ITAMSAT 1 20 Nov 13:13:07 13:16:24 17° 51° (NE) 13:19:40 435.822/435.867
Gurwin Techsat 1B 20 Nov 13:15:20 13:20:40 78° 255° (WSW) 13:26:02 435.225
50 SAT 20 Nov 13:16:17 13:18:33 17° 93° (E) 13:20:47 437.505
UKube-1 20 Nov 13:28:10 13:31:05 17° 90° (E) 13:33:59 .
VELOX 1 20 Nov 13:29:13 13:33:44 90° 222° (SW) 13:38:11 145.980
O/OREOS (USA 219) 20 Nov 13:30:47 13:34:44 29° 106° (ESE) 13:38:42 437.305
YUBILEINY 20 Nov 13:37:43 13:40:48 12° 32° (NNE) 13:43:54 435.215
M-CUBED/EXP-1 PRIME 20 Nov 13:58:40 14:02:13 55° 253° (WSW) 14:06:06 437.505
DX 1 20 Nov 14:18:32 14:22:57 73° 104° (ESE) 14:27:20 434.975-435.025
AO-85 20 Nov 14:18:42 14:22:12 21° 244° (WSW) 14:25:53 145.980
DOVE 4 20 Nov 14:21:43 14:23:57 13° 48° (NE) 14:26:13 437.250
MOZHAYETS 4 20 Nov 14:27:40 14:30:24 15° 87° (E) 14:33:06
AO-7 20 Nov 14:30:56 14:39:15 88° 68° (ENE) 14:47:38 .
SPROUT 20 Nov 14:37:08 14:39:53 17° 303° (WNW) 14:42:36 437.525
Oscar 19 20 Nov 14:43:11 14:45:32 13° 275° (W) 14:47:54 437.125/150
50 SAT 20 Nov 14:47:47 14:50:49 37° 291° (WNW) 14:53:49 437.505
ITAMSAT 1 20 Nov 14:49:51 14:55:05 77° 71° (ENE) 15:00:21 435.822/435.867
Gurwin Techsat 1B 20 Nov 14:58:45 15:01:31 14° 275° (W) 15:04:17 435.225
UKube-1 20 Nov 15:03:14 15:07:33 66° 289° (WNW) 15:11:50 .
VELOX 1 20 Nov 15:06:53 15:09:33 16° 305° (NW) 15:12:12 145.980
O/OREOS (USA 219) 20 Nov 15:09:32 15:13:59 46° 306° (NW) 15:18:27 437.305
BEESAT 20 Nov 15:31:27 15:35:59 42° 98° (E) 15:40:29 436.000
YUBILEINY 20 Nov 15:33:03 15:41:07 37° 61° (ENE) 15:49:07 435.215
NO-84 20 Nov 15:36:12 15:38:51 18° 132° (SE) 15:41:38 435.350 FM
ITUPSAT 1 20 Nov 15:40:20 15:44:58 48° 100° (E) 15:49:34 437.325
HO-68 20 Nov 15:49:26 15:53:50 18° 39° (NE) 15:58:13 435.675
XW-2C 20 Nov 15:53:48 15:55:05 11° 56° (NE) 15:56:23 145.795 - 145.815
LilacSat-2 20 Nov 15:54:02 15:55:38 12° 56° (ENE) 15:57:14 437.200
DOVE 4 20 Nov 15:55:33 16:00:32 56° 69° (ENE) 16:05:42 437.250
DX 1 20 Nov 15:55:38 15:58:39 18° 303° (WNW) 16:01:40 434.975-435.025
MOZHAYETS 4 20 Nov 16:03:34 16:08:09 80° 285° (WNW) 16:12:42
XW-2F 20 Nov 16:04:52 16:06:45 14° 58° (ENE) 16:08:39 145.980 - 146.000
CUBESAT XI-V 20 Nov 16:12:05 16:16:27 37° 96° (E) 16:20:47 437.345
CUTE-I 20 Nov 16:15:04 16:19:23 25° 57° (ENE) 16:23:44 437.470
AO-7 20 Nov 16:26:26 16:33:05 26° 270° (W) 16:39:49 .
KKS-1 20 Nov 16:27:56 16:30:20 14° 87° (E) 16:32:43 437.445
ITAMSAT 1 20 Nov 16:31:25 16:35:09 19° 271° (W) 16:38:54 435.822/435.867
KAITUO 1B 20 Nov 16:33:39 16:36:23 20° 62° (ENE) 16:39:07 145.475/437.950
UKube-1 20 Nov 16:41:10 16:42:46 12° 309° (NW) 16:44:21 .
XW-2D 20 Nov 16:45:00 16:48:23 33° 67° (ENE) 16:51:47 145.860 - 145.880
O/OREOS (USA 219) 20 Nov 16:52:27 16:54:35 13° 329° (NNW) 16:56:42 437.305
STARS 20 Nov 16:56:06 16:57:26 11° 85° (E) 16:58:46 437.465
XW-2B 20 Nov 16:59:34 17:03:08 45° 70° (ENE) 17:06:44 145.730 - 145.750
CUTE 1.7 + AOD 2 20 Nov 17:06:47 17:09:45 19° 59° (ENE) 17:12:43 437.475
BEESAT 20 Nov 17:09:27 17:13:41 32° 298° (WNW) 17:17:52 436.000
NO-84 20 Nov 17:11:44 17:15:37 70° 153° (SSE) 17:19:45 435.350 FM
UWE-3 20 Nov 17:17:16 17:18:16 11° 52° (NE) 17:19:16 435.000/436.395/437.385
ITUPSAT 1 20 Nov 17:18:32 17:22:35 28° 299° (WNW) 17:26:38 437.325
NUDT-PHONESAT 20 Nov 17:19:08 17:22:41 52° 71° (ENE) 17:26:15 437.300
XW-2C 20 Nov 17:24:54 17:28:38 85° 78° (ENE) 17:32:25 145.795 - 145.815
LilacSat-2 20 Nov 17:25:33 17:29:19 88° 253° (WSW) 17:33:08 437.200
YUBILEINY 20 Nov 17:29:52 17:38:40 70° 266° (W) 17:47:24 435.215
HO-68 20 Nov 17:33:10 17:40:07 54° 62° (ENE) 17:47:06 435.675
DOVE 4 20 Nov 17:34:13 17:38:31 27° 269° (W) 17:42:58 437.250
XW-2F 20 Nov 17:36:38 17:40:20 77° 257° (WSW) 17:44:06 145.980 - 146.000
SEEDS 20 Nov 17:38:50 17:42:10 23° 62° (ENE) 17:45:31 437.485
MOZHAYETS 4 20 Nov 17:42:08 17:44:36 15° 306° (NW) 17:47:03
CUBESAT XI-V 20 Nov 17:49:34 17:53:48 35° 295° (WNW) 17:58:02 437.345
AAUSAT CUBESAT 2 20 Nov 17:49:47 17:52:16 16° 57° (ENE) 17:54:46 437.432
CUBEBUG 2 20 Nov 17:51:04 17:55:03 31° 65° (ENE) 17:58:57 437.445
CUTE-I 20 Nov 17:53:40 17:59:01 68° 257° (WSW) 18:04:25 437.470
AO-73 20 Nov 18:00:30 18:02:27 13° 55° (NE) 18:04:25 145.935
KKS-1 20 Nov 18:03:00 18:07:31 85° 284° (WNW) 18:11:59 437.445
KAITUO 1B 20 Nov 18:06:33 18:10:06 45° 261° (W) 18:13:41 145.475/437.950
RS-15 20 Nov 18:14:16 18:24:51 36° 106° (ESE) 18:35:19 29.354- 29.394
Oscar 11 20 Nov 18:17:49 18:20:01 14° 55° (NE) 18:22:13 .
XW-2D 20 Nov 18:19:28 18:22:37 25° 266° (W) 18:25:47 145.860 - 145.880
STRAND 1 20 Nov 18:21:23 18:22:58 11° 83° (E) 18:24:33 437.568
STARS 20 Nov 18:30:06 18:34:32 79° 104° (ESE) 18:38:56 437.465
XW-2B 20 Nov 18:34:48 18:37:32 19° 269° (W) 18:40:18 145.730 - 145.750
CUTE 1.7 + AOD 2 20 Nov 18:40:59 18:45:10 64° 259° (W) 18:49:22 437.475
ZACube-1 20 Nov 18:42:44 18:46:31 31° 65° (ENE) 18:50:16 437.345
NO-84 20 Nov 18:49:06 18:53:07 61° 354° (N) 18:57:19 435.350 FM
UWE-3 20 Nov 18:49:33 18:53:55 61° 72° (ENE) 18:58:11 435.000/436.395/437.385
NUDT-PHONESAT 20 Nov 18:54:31 18:56:51 16° 270° (W) 18:59:12 437.300
XW-2A 20 Nov 18:56:46 19:00:03 64° 74° (ENE) 19:03:22 145.665 - 145.685
XW-2C 20 Nov 19:02:33 19:03:24 11° 274° (W) 19:04:15 145.795 - 145.815
SEEDS 20 Nov 19:13:35 19:17:37 47° 262° (W) 19:21:41 437.485
HO-68 20 Nov 19:21:22 19:28:04 41° 263° (W) 19:34:51 435.675
AAUSAT CUBESAT 2 20 Nov 19:23:03 19:27:11 79° 258° (WSW) 19:31:22 437.432
CUBEBUG 2 20 Nov 19:27:18 19:31:35 39° 263° (W) 19:35:47 437.445
YUBILEINY 20 Nov 19:28:21 19:33:47 18° 289° (WNW) 19:39:14 435.215
AO-73 20 Nov 19:33:45 19:38:03 81° 73° (ENE) 19:42:17 145.935
CUTE-I 20 Nov 19:37:58 19:40:06 12° 277° (W) 19:42:14 437.470
KKS-1 20 Nov 19:40:51 19:43:25 15° 306° (NW) 19:45:57 437.445
Max Valier Satellite 20 Nov 19:47:43 19:49:41 14° 59° (ENE) 19:51:40 145.860
EO-88 20 Nov 19:49:17 19:50:19 11° 56° (NE) 19:51:22 145.990 - 145.960
Oscar 11 20 Nov 19:51:12 19:55:29 84° 75° (ENE) 19:59:49 .
STRAND 1 20 Nov 19:58:01 20:03:09 67° 103° (ESE) 20:08:15 437.568
DELFI C3 20 Nov 20:03:03 20:06:27 28° 65° (ENE) 20:09:54 145.870
STARS 20 Nov 20:07:27 20:10:21 17° 304° (NW) 20:13:13 437.465
FO-29 20 Nov 20:13:26 20:20:42 38° 92° (E) 20:27:42 435.910
ZACube-1 20 Nov 20:18:47 20:22:45 35° 263° (W) 20:26:40 437.345
RS-15 20 Nov 20:23:43 20:36:08 89° 312° (NW) 20:48:22 29.354- 29.394
NO-84 20 Nov 20:26:37 20:30:48 73° 14° (NNE) 20:35:05 435.350 FM
UWE-3 20 Nov 20:27:35 20:30:44 19° 270° (W) 20:33:51 435.000/436.395/437.385
XW-2A 20 Nov 20:32:06 20:33:10 11° 272° (W) 20:34:14 145.665 - 145.685
ESTCUBE 1 20 Nov 20:58:23 20:59:59 12° 51° (NE) 21:01:35 437.505/2401.250
AAUSAT CUBESAT 2 20 Nov 21:02:55 21:03:22 10° 276° (W) 21:03:51 437.432
AO-73 20 Nov 21:12:38 21:14:50 14° 273° (W) 21:17:01 145.935
Max Valier Satellite 20 Nov 21:19:24 21:23:02 70° 257° (WSW) 21:26:43 145.860
EO-88 20 Nov 21:19:44 21:23:20 85° 79° (E) 21:27:00 145.990 - 145.960
nSIGHT-1 20 Nov 21:21:13 21:22:56 14° 141° (SE) 21:24:40 .
Oscar 11 20 Nov 21:30:05 21:32:14 13° 274° (W) 21:34:24 .
DELFI C3 20 Nov 21:37:27 21:41:07 35° 264° (W) 21:44:49 145.870
STRAND 1 20 Nov 21:37:52 21:41:56 24° 303° (WNW) 21:45:58 437.568
SO-50 20 Nov 21:41:51 21:44:57 19° 114° (ESE) 21:48:05 436.795
LO-87 20 Nov 21:47:22 21:50:28 27° 66° (ENE) 21:53:35 145.935 - 145.965
UNISAT 6 20 Nov 21:50:14 21:54:16 37° 97° (E) 21:58:14 437.425
TIGRISAT 20 Nov 21:54:50 21:58:51 38° 97° (E) 22:02:49 435.000
O/OREOS (USA 219) 20 Nov 21:55:21 21:59:18 27° 46° (NE) 22:03:12 437.305
FO-29 20 Nov 21:58:19 22:06:06 64° 293° (WNW) 22:13:38 435.910
ISS 20 Nov 22:01:29 22:04:04 22° 147° (SSE) 22:06:40 437.550
NO-84 20 Nov 22:04:03 22:08:07 45° 214° (SW) 22:12:10 435.350 FM
SPROUT 20 Nov 22:24:30 22:27:25 18° 58° (ENE) 22:30:21 437.525
ESTCUBE 1 20 Nov 22:31:30 22:35:56 63° 71° (ENE) 22:40:24 437.505/2401.250
RS-15 20 Nov 22:38:13 22:50:10 51° 342° (NNW) 23:01:46 29.354- 29.394
nSIGHT-1 20 Nov 22:55:31 22:58:37 46° 160° (SSE) 23:01:43 .
VELOX 1 20 Nov 22:56:21 22:59:58 25° 60° (ENE) 23:03:36 145.980
EO-88 20 Nov 22:57:24 22:57:33 10° 274° (W) 22:57:42 145.990 - 145.960
PRISM 20 Nov 23:04:18 23:08:30 73° 104° (ESE) 23:12:40 437.425
DUCHIFAT 1 20 Nov 23:18:41 23:20:26 12° 86° (E) 23:22:12 145.980
SO-50 20 Nov 23:20:22 23:24:52 82° 315° (NW) 23:29:26 436.795
LO-87 20 Nov 23:20:38 23:23:50 29° 264° (W) 23:27:02 145.935 - 145.965
EO-79 20 Nov 23:24:11 23:27:03 18° 90° (E) 23:29:55 145.935-145.965
UNISAT 6 20 Nov 23:27:09 23:30:54 30° 296° (WNW) 23:34:36 437.425
NANOSAT C BR1 20 Nov 23:28:00 23:30:47 17° 90° (E) 23:33:35 145.865
TIGRISAT 20 Nov 23:31:44 23:35:28 29° 297° (WNW) 23:39:08 435.000
O/OREOS (USA 219) 20 Nov 23:34:32 23:39:01 55° 247° (WSW) 23:43:26 437.305
PCSat 20 Nov 23:35:33 23:38:18 14° 104° (ESE) 23:41:03 145.827
ISS 20 Nov 23:36:56 23:40:11 63° 166° (SSE) 23:43:25 437.550
POLYITAN 1 20 Nov 23:38:54 23:42:20 24° 93° (E) 23:45:44 437.675
NO-84 20 Nov 23:43:23 23:44:38 11° 233° (SW) 23:45:53 435.350 FM
FO-29 20 Nov 23:44:16 23:49:46 21° 315° (NW) 23:55:13 435.910
DX 1 20 Nov 23:44:38 23:47:53 21° 58° (ENE) 23:51:08 434.975-435.025
50 SAT 20 Nov 23:49:00 23:51:04 16° 61° (ENE) 23:53:10 437.505
AIST 2D 20 Nov 23:49:14 23:52:46 84° 105° (ESE) 23:56:18 435.315
SPROUT 20 Nov 23:58:35 00:02:51 70° 257° (WSW) 00:07:09 437.525
QB50P2 21 Nov 00:01:48 00:05:50 42° 98° (E) 00:09:49 145.880/145.840
ESTCUBE 1 21 Nov 00:09:58 00:13:10 19° 270° (W) 00:16:23 437.505/2401.250
BUGSAT 1 21 Nov 00:14:21 00:15:52 12° 86° (E) 00:17:22 437.445
UKube-1 21 Nov 00:27:30 00:31:19 31° 63° (ENE) 00:35:09 .
nSIGHT-1 21 Nov 00:31:30 00:34:43 80° 184° (S) 00:37:57 .
VELOX 1 21 Nov 00:31:49 00:36:09 51° 260° (W) 00:40:31 145.980
PRISM 21 Nov 00:40:34 00:43:18 17° 303° (WNW) 00:46:00 437.425
DUCHIFAT 1 21 Nov 00:52:31 00:56:44 87° 286° (WNW) 01:00:54 145.980
RS-15 21 Nov 00:53:50 01:05:37 49° 15° (NNE) 01:16:53 29.354- 29.394
EO-79 21 Nov 00:59:03 01:03:13 61° 288° (WNW) 01:07:20 145.935-145.965
SO-50 21 Nov 01:02:10 01:05:57 26° 336° (NNW) 01:09:48 436.795
NANOSAT C BR1 21 Nov 01:02:45 01:06:55 62° 289° (WNW) 01:11:02 145.865
Oscar 19 21 Nov 01:06:11 01:10:24 25° 92° (E) 01:14:36 437.125/150
BEESAT 21 Nov 01:07:43 01:10:50 17° 54° (NE) 01:13:55 436.000
ISS 21 Nov 01:13:19 01:16:36 77° 186° (S) 01:19:52 437.550
POLYITAN 1 21 Nov 01:14:18 01:18:19 44° 292° (WNW) 01:22:17 437.675
PCSat 21 Nov 01:15:22 01:20:45 71° 124° (SE) 01:26:11 145.827
ITUPSAT 1 21 Nov 01:16:33 01:19:58 20° 56° (NE) 01:23:24 437.325
DX 1 21 Nov 01:19:20 01:23:40 63° 258° (WSW) 01:28:03 434.975-435.025
50 SAT 21 Nov 01:19:45 01:22:53 45° 260° (W) 01:26:02 437.505
AIST 2D 21 Nov 01:24:07 01:25:23 12° 302° (WNW) 01:26:39 435.315
Gurwin Techsat 1B 21 Nov 01:25:57 01:30:27 27° 92° (E) 01:34:56 435.225
MOZHAYETS 4 21 Nov 01:34:31 01:38:27 29° 62° (ENE) 01:42:23
QB50P2 21 Nov 01:37:56 01:41:27 26° 298° (WNW) 01:44:56 145.880/145.840
CUBESAT XI-V 21 Nov 01:46:38 01:48:41 13° 52° (NE) 01:50:44 437.345
BUGSAT 1 21 Nov 01:47:45 01:51:51 87° 285° (WNW) 01:55:52 437.445
UKube-1 21 Nov 02:03:14 02:07:15 37° 262° (W) 02:11:19 .
nSIGHT-1 21 Nov 02:07:44 02:10:50 48° 200° (SSW) 02:13:56 .
